Location: Normandy Village
(37.8755°N, 122.2655°W)
Time: 23:35:01
(UTC+00:00)

Abrixas rocket - Pass Details

Date: 22 September 2019
Orbit: 361 x 370 km, 48.4° (Epoch: 20 October)

Event Time Altitude Azimuth Distance (km) Brightness Sun altitude
Exits shadow 13:05:39 15° 231° (SW) 1,110 3.9 -10.9°
Maximum altitude 13:08:05 81° 144° (SE) 370 2.0 -10.4°
Drops below altitude 10° 13:11:06 10° 58° (ENE) 1,345 6.0 -9.8°
Sets 13:13:08 0° 57° (ENE) 2,192 7.2 -9.4°
